FENGYUN 1C DEB, 31813

Orbit data source: Space-Track

FENGYUN 1C DEB, 31813 is space debris in SSO originally from a launch on Mon, 10 May 1999 UTC launched from the Taiyaun Space Center, China (TSC). Fengyun 1C debris stems from the Chinese weather satellite Fengyun-1C, which was intentionally destroyed by a Chinese anti-satellite missile in 2007. This event dramatically increased the amount of space debris, with thousands of trackable fragments posing hazards to satellites and human spaceflight. The Fengyun 1C debris cloud has become a focal point in discussions about space sustainability and the need for international regulations to prevent the creation of new debris.

Loading next visibility...
Identifier
31813, 1999-025CHB
Orbit
SSO
Country
Flag of CNCN / PRC
Related business
Manufacturer
Unknown
Mission
Spacecraft
Bus & Motor
Unknown
Mass
Unknown
Launch date (UTC)
1999-05-10 (27 years ago)
Launch vehicle
Unknown
Launch site
Taiyaun Space Center, China (TSC)
Object type
Payload
Rocket body
Debris
Shape & HBR
Unknown shape, 0.1 m
Radar Cross Section
Small (<0.1 m²)

Expand to show TLE details & history
Last TLE update: 2 days ago

TLE from 2 days ago
0 FENGYUN 1C DEB
1 31813U 99025CHB 25351.03289232  .00001372  00000-0  33075-3 0  9990
2 31813  99.4273  71.0657 0136045 320.9402  38.2025 14.49798065973188
Epoch: 2025-12-17T00:47Z
TLE epoch observation values (Epoch: 2025-12-17T00:47:21.896Z)
Latitude
-0.00002°
Longitude
-26.6841°
Altitude
653.784 km
Speed
7.571 km/s
True Right ascension
04h 44m 15s
True Declination
0° 00' 00"
Sunlit
Object was in full shadow at epoch
Visualization orbit readout
Latitude
Unknown
Longitude
Unknown
Altitude
Unknown
Speed
Unknown
Apparent Right ascension
Unknown
Apparent Declination
Unknown
Sunlit
N/A
Visualization observer readout
Local Sidereal Time
05:13:45
Azimuth
Unknown
Elevation
Unknown
Doppler factor
Unknown
Orbital elements
Apogee altitude
820.076 km
Perigee altitude
626.849 km
Semi-major axis
7,101.599 km
Eccentricity
0.0136
Inclination
99.4273°
RAAN
71.0657°
Arg. of periapsis
320.9402°
True anomaly
39.17963°
Mean anomaly
38.2025°
Eccentric anomaly
38.68976°
Mean motion
3.62668 °/min
Orbital period
99.26 mins
BSTAR
0.00033075
Loading maneuver chart data...
Computing Atmospheric mass density...

Documentation

Showing up to 5 results
|